Volver al catálogo

SCOUT X-4 DEB

ActivoLEO
NORAD 2088·DEBRIS·🇺🇸 United States

Lanzado Nov 19, 1965 desde Wallops Flight Facility

Loading…

Próximos Pases (próximas 24 horas)

TLE

ActualizadoSource: Space-Track

Época: Sep 14, 2026, 08:40 UTC

1 02088U 65093D   26257.36158000  .00000646  00000-0  15420-3 0  9997
2 02088  59.7130 236.9363 0081828 141.6987 218.9912 14.62520557166945

Sigue SCOUT X-4 DEB en tiempo real con AllMySat

Download on the App Store